Location: Burland Observatory
(39.4088°N, 105.4217°W)
Time: 07:14:29
(UTC-07:00)

Tiros 1 despin weight - All Passes

Search period start: 07 December 2019 00:00
Search period end: 17 December 2019 00:00
Orbit: 594 x 642 km, 48.2° (Epoch: 06 December)

Date Brightness Start Highest point End Pass type
(mag) Time Alt. Az. Time Alt. Az. Time Alt. Az.
07 Dec - 05:07:35 10° SSW 05:11:39 34° SE 05:15:41 10° ENE visible
07 Dec - 06:48:42 10° WSW 06:53:05 53° NNW 06:57:26 10° NE daylight
07 Dec - 08:31:32 10° WNW 08:35:18 26° N 08:39:03 10° NE daylight
07 Dec - 10:13:44 10° NW 10:17:44 33° NNE 10:21:43 10° E daylight
07 Dec - 11:55:12 10° WNW 11:59:36 80° SW 12:04:00 10° SE daylight
07 Dec - 13:38:18 10° W 13:40:35 14° SW 13:42:53 10° SSW daylight
08 Dec - 03:45:50 10° SSE 03:47:10 11° SE 03:48:30 10° ESE visible
08 Dec - 05:23:36 10° SW 05:28:05 65° SE 05:32:29 10° ENE visible
08 Dec - 07:05:42 10° W 07:09:51 36° NNW 07:13:58 10° NE daylight
08 Dec - 08:48:30 10° NW 08:52:14 26° N 08:55:57 10° ENE daylight
08 Dec - 10:30:17 10° NW 10:34:32 45° NNE 10:38:46 10° E daylight
08 Dec - 12:11:55 10° WNW 12:16:04 41° SW 12:20:12 10° SSE daylight
09 Dec - 03:59:49 10° S 04:03:24 23° SE 04:06:56 10° E visible
09 Dec - 05:40:08 10° WSW 05:44:38 71° NNW 05:49:05 10° NE visible
09 Dec - 07:22:48 10° WNW 07:26:42 29° N 07:30:34 10° NE daylight
09 Dec - 09:05:17 10° NW 09:09:10 29° N 09:13:01 10° ENE daylight
09 Dec - 10:46:48 10° NW 10:51:13 74° NNE 10:55:36 10° ESE daylight
09 Dec - 12:29:04 10° W 12:32:23 21° SW 12:35:42 10° S daylight
10 Dec - 04:15:25 10° SSW 04:19:44 45° SE 04:24:01 10° ENE visible
10 Dec - 05:56:59 10° W 06:01:19 45° NNW 06:05:36 10° NE visible
10 Dec - 07:39:52 10° WNW 07:43:38 26° N 07:47:22 10° NE daylight
10 Dec - 09:21:53 10° NW 09:26:01 37° NNE 09:30:07 10° E daylight
10 Dec - 11:03:24 10° WNW 11:07:45 61° SW 11:12:05 10° SE daylight
11 Dec - 02:52:27 10° S 02:55:10 16° SE 02:57:52 10° E visible
11 Dec - 04:31:40 10° SW 04:36:13 84° SSE 04:40:43 10° ENE visible
11 Dec - 06:14:03 10° W 06:18:08 32° NNW 06:22:09 10° NE visible
11 Dec - 07:56:46 10° NW 08:00:34 27° N 08:04:20 10° ENE daylight
11 Dec - 09:38:25 10° NW 09:42:46 55° NNE 09:47:05 10° ESE daylight
11 Dec - 11:20:15 10° WNW 11:24:10 31° SW 11:28:02 10° SSE daylight
12 Dec - 03:07:26 10° SSW 03:11:26 31° SE 03:15:25 10° ENE visible
12 Dec - 04:48:21 10° WSW 04:52:50 58° NNW 04:57:16 10° NE visible
12 Dec - 06:31:10 10° WNW 06:35:01 27° N 06:38:50 10° NE visible
12 Dec - 08:13:28 10° NW 08:17:28 31° NNE 08:21:25 10° ENE daylight
12 Dec - 09:54:58 10° WNW 09:59:24 87° SSW 10:03:48 10° SE daylight
12 Dec - 11:37:47 10° W 11:40:26 16° SW 11:43:03 10° S daylight
13 Dec - 03:23:21 10° SW 03:27:50 59° SE 03:32:17 10° ENE visible
13 Dec - 05:05:19 10° W 05:09:34 38° NNW 05:13:47 10° NE visible
13 Dec - 06:48:10 10° WNW 06:51:57 26° N 06:55:42 10° ENE daylight
13 Dec - 08:30:02 10° NW 08:34:17 43° NNE 08:38:30 10° E daylight
13 Dec - 10:11:39 10° WNW 10:15:53 46° SW 10:20:05 10° SE daylight
14 Dec - 01:59:44 10° S 02:03:11 21° SE 02:06:36 10° E night (unlit)
14 Dec - 03:39:48 10° WSW 03:44:23 78° NNW 03:48:54 10° ENE visible
14 Dec - 05:22:25 10° WNW 05:26:25 30° NNW 05:30:22 10° NE visible
14 Dec - 07:04:58 10° NW 07:08:53 28° N 07:12:45 10° ENE daylight
14 Dec - 08:46:33 10° NW 08:50:59 68° NNE 08:55:22 10° ESE daylight
14 Dec - 10:28:42 10° W 10:32:13 23° SW 10:35:43 10° S daylight
15 Dec - 02:15:12 10° SSW 02:19:30 41° SE 02:23:46 10° ENE night (unlit)
15 Dec - 03:56:37 10° W 04:01:03 48° NNW 04:05:25 10° NE visible
15 Dec - 05:39:30 10° WNW 05:43:20 26° N 05:47:07 10° NE visible
15 Dec - 07:21:37 10° NW 07:25:45 35° NNE 07:29:50 10° E daylight
15 Dec - 09:03:08 10° WNW 09:07:33 68° SW 09:11:55 10° SE daylight
15 Dec - 10:47:02 10° WSW 10:48:25 11° SW 10:49:48 10° SSW daylight
16 Dec - 00:52:32 10° SSE 00:54:57 14° SE 00:57:23 10° E night (unlit)
16 Dec - 02:31:22 10° SW 02:35:57 77° SSE 02:40:30 10° ENE night (unlit)
16 Dec - 04:13:40 10° W 04:17:50 34° NNW 04:21:57 10° NE visible
16 Dec - 05:56:26 10° NW 06:00:16 27° N 06:04:04 10° ENE visible
16 Dec - 07:38:09 10° NW 07:42:32 51° NNE 07:46:50 10° ESE daylight
16 Dec - 09:19:56 10° WNW 09:23:58 35° SW 09:27:57 10° SSE daylight
